User: anonymous   Login
Location: Caltech
(34.1382°N, 118.1253°W)
Time: 19:31:01
(UTC-07:00)
Language:

ALOS - Orbit

View from above orbital plane
View from above orbital plane
View from above satellite
View from above satellite

Ground track
Ground track

The orbit data is extracted from the following two-line orbital elements,

1 28931U 06002A   17146.58463974 +.00000285 +00000-0 +65084-4 0  9998
2 28931 097.8447 175.0198 0002195 065.2889 294.8544 14.62353777604304
Epoch (UTC): 26 May 2017 14:01:52
Eccentricity: 0.0002195
inclination: 97.8447°
perigee height: 684 km
apogee height: 687 km
right ascension of ascending node: 175.0198°
argument of perigee: 65.2889°
revolutions per day: 14.62353777
mean anomaly at epoch: 294.8544°
orbit number at epoch: 60430

The dashed part of the orbit path shows where the satellite is in the earth's shadow,  

DLR